Starlink 31800

operational
NORAD ID: 59643 Int'l Des: 2024-082 Owner: SPXS Country: US Constellation: starlink
LEOCIRCULAR

关于 Starlink 31800

正在加载描述...

实时位置

正在加载3D地球...

即将过境

高度历史

Altitude vs Time

uPlot chart will show altitude changes over time

两行轨道根数

1 59643U 24082N 25352.11428063 .00002693 00000-0 10739-3 0 9998
2 59643 42.9991 240.6906 0001415 260.6572 99.4120 15.27570386 92436
Epoch: Dec 18, 2025 • Age: 12 hours

当前状态

高度 484.3 km
速度 7.63 km/s
星下点 30.12°N, 77.7°E
发射日期 May 3, 2024
运行时间 1.6 years
类型 internet

技术详情

分类 Payload
质量 730.00 kg
干质量 700.00 kg
总质量 730.00 kg
长度 0.30 m
直径 4.10 m
跨度 29.00 m
形状 Box + pan
制造商 SPXS
平台类型 Starlink V2M
阶段状态 In Orbit
所有者/国家 SPXS/US

大型星座

Loading constellations...